Temp
-13 -13 -13 -13 -13 -13 -13 -13 -13 -13 -13 -13 -13 -12 -12 -12 -12 -13 -12 -12 -12 -12 -12 -12 -11 -12 -11 -11 -11 -10 -9 -7 -7 -8 -8 -10 -10 -10 -9 -8 -8 -8 -9 -10 -9
-14 -13 -13 -13 -13 -13 -13 -13 -13 -13 -13 -13 -13 -13 -13 -13 -13 -13 -13 -13 -13 -13 -12 -12 -12 -12 -12 -11 -11 -10 -9 -8 -8 -9 -9 -10 -10 -11 -10 -9 -8 -8 -9 -9 -9
-14 -14 -14 -13 -13 -13 -13 -13 -13 -13 -13 -13 -13 -13 -13 -13 -13 -13 -13 -13 -13 -13 -13 -13 -13 -12 -12 -12 -11 -11 -9 -9 -9 -9 -9 -10 -10 -10 -10 -9 -9 -9 -8 -8 -8
-14 -14 -14 -13 -13 -13 -13 -13 -13 -13 -13 -13 -13 -13 -13 -13 -14 -13 -13 -13 -13 -13 -13 -13 -13 -13 -12 -12 -12 -11 -10 -10 -9 -9 -10 -10 -10 -10 -10 -9 -9 -9 -8 -8 -8
-14 -14 -14 -14 -14 -13 -13 -13 -13 -13 -14 -13 -13 -13 -13 -14 -14 -14 -14 -14 -13 -13 -13 -13 -14 -14 -13 -13 -12 -12 -11 -10 -10 -10 -9 -10 -10 -10 -9 -10 -9 -9 -9 -9 -8
-14 -14 -14 -14 -14 -14 -14 -14 -14 -14 -14 -14 -14 -14 -14 -14 -15 -15 -15 -15 -15 -14 -14 -14 -14 -14 -14 -13 -13 -12 -11 -11 -10 -9 -10 -10 -11 -10 -8 -10 -9 -9 -9 -9 -9
-15 -14 -14 -14 -14 -14 -14 -14 -14 -15 -15 -15 -15 -14 -15 -15 -15 -15 -15 -15 -16 -15 -15 -15 -14 -14 -14 -14 -14 -13 -12 -11 -10 -10 -10 -11 -11 -10 -9 -10 -10 -9 -9 -9 -9
-14 -14 -14 -14 -14 -14 -14 -14 -15 -15 -15 -15 -15 -15 -16 -16 -16 -16 -17 -17 -17 -17 -16 -16 -15 -15 -14 -14 -14 -14 -13 -12 -9 -10 -10 -11 -10 -10 -10 -11 -10 -10 -9 -10 -9
-14 -14 -14 -14 -14 -15 -15 -15 -15 -16 -16 -16 -16 -16 -17 -17 -17 -18 -18 -18 -18 -18 -18 -17 -17 -16 -15 -15 -15 -14 -13 -12 -10 -11 -12 -12 -11 -10 -10 -11 -11 -11 -9 -10 -9
-14 -14 -14 -14 -15 -15 -15 -15 -16 -16 -16 -16 -17 -17 -18 -18 -19 -19 -19 -19 -19 -19 -19 -19 -18 -17 -16 -16 -15 -14 -14 -13 -11 -12 -13 -12 -11 -10 -11 -11 -12 -11 -11 -10 -10
-14 -14 -15 -15 -15 -16 -16 -16 -16 -16 -17 -17 -18 -18 -19 -19 -19 -20 -20 -20 -20 -20 -19 -19 -19 -18 -18 -18 -16 -16 -15 -14 -12 -13 -13 -13 -11 -11 -11 -11 -12 -12 -11 -10 -10
-15 -15 -15 -16 -16 -16 -16 -17 -17 -17 -18 -18 -19 -19 -20 -21 -21 -21 -21 -21 -21 -21 -20 -20 -19 -20 -19 -19 -18 -17 -16 -15 -13 -14 -14 -13 -12 -11 -12 -11 -12 -13 -12 -11 -11
-16 -16 -16 -16 -16 -17 -17 -17 -18 -18 -18 -19 -19 -20 -21 -22 -22 -22 -22 -22 -22 -22 -22 -20 -20 -22 -21 -20 -20 -18 -17 -15 -14 -15 -15 -14 -13 -12 -11 -12 -11 -13 -13 -12 -11
-16 -17 -17 -17 -17 -17 -18 -18 -19 -19 -20 -20 -20 -21 -22 -23 -23 -23 -23 -24 -24 -24 -23 -23 -23 -23 -22 -20 -21 -19 -18 -17 -16 -16 -16 -15 -13 -13 -12 -12 -12 -12 -13 -12 -11
-16 -17 -17 -17 -18 -18 -18 -19 -20 -20 -21 -21 -22 -23 -24 -24 -24 -25 -25 -25 -25 -25 -25 -25 -24 -24 -23 -23 -23 -20 -20 -19 -17 -17 -16 -16 -16 -11 -12 -12 -12 -11 -12 -12 -12
-17 -17 -18 -18 -19 -19 -19 -20 -20 -21 -22 -22 -23 -24 -24 -25 -25 -25 -25 -26 -26 -26 -26 -25 -25 -25 -24 -24 -23 -21 -21 -20 -19 -18 -19 -16 -17 -12 -12 -12 -11 -11 -12 -12 -12
-17 -18 -18 -18 -19 -20 -20 -20 -21 -22 -22 -23 -25 -25 -25 -25 -25 -25 -25 -26 -26 -26 -26 -26 -26 -26 -25 -24 -24 -23 -22 -21 -21 -20 -18 -16 -18 -13 -12 -12 -12 -11 -11 -12 -12
-18 -18 -18 -19 -20 -20 -21 -21 -22 -22 -23 -24 -25 -25 -26 -26 -26 -26 -25 -26 -27 -27 -27 -27 -26 -25 -25 -25 -24 -24 -23 -22 -21 -20 -17 -18 -20 -12 -13 -12 -12 -11 -11 -12 -13
-18 -19 -19 -20 -20 -21 -21 -21 -23 -23 -23 -24 -26 -25 -26 -26 -26 -26 -26 -27 -27 -27 -27 -27 -26 -26 -25 -25 -24 -24 -24 -23 -23 -22 -20 -20 -19 -15 -14 -13 -13 -12 -12 -12 -12
-18 -19 -19 -20 -21 -21 -22 -22 -23 -23 -24 -25 -25 -26 -26 -26 -27 -26 -27 -28 -28 -27 -27 -27 -27 -26 -26 -25 -25 -24 -24 -23 -22 -22 -21 -19 -18 -16 -15 -14 -13 -13 -12 -11 -12
-19 -19 -20 -21 -21 -22 -22 -23 -23 -24 -24 -25 -26 -26 -26 -26 -27 -27 -27 -28 -28 -28 -28 -27 -27 -26 -26 -25 -25 -24 -24 -24 -23 -22 -21 -20 -18 -17 -16 -15 -13 -13 -13 -12 -12
-19 -20 -20 -21 -22 -22 -22 -23 -24 -24 -25 -26 -26 -26 -27 -26 -26 -27 -27 -28 -28 -28 -28 -28 -27 -26 -26 -26 -26 -25 -24 -24 -23 -22 -20 -20 -18 -17 -16 -15 -13 -13 -13 -15 -14
-20 -20 -21 -22 -22 -23 -23 -23 -24 -24 -26 -26 -26 -27 -27 -27 -27 -27 -27 -28 -28 -28 -28 -28 -28 -27 -26 -26 -26 -26 -25 -24 -24 -22 -21 -20 -17 -18 -17 -16 -15 -14 -13 -14 -14
-20 -21 -21 -22 -23 -23 -23 -24 -24 -25 -26 -26 -26 -27 -27 -27 -27 -26 -26 -27 -27 -28 -28 -28 -28 -28 -27 -27 -26 -25 -25 -25 -24 -23 -21 -20 -18 -18 -18 -18 -16 -16 -14 -13 -14
-20 -21 -21 -22 -23 -23 -23 -24 -24 -25 -26 -26 -26 -27 -27 -27 -27 -27 -27 -27 -27 -27 -28 -28 -28 -28 -27 -27 -27 -26 -26 -25 -24 -23 -22 -21 -19 -19 -18 -17 -16 -16 -16 -15 -13
-21 -21 -22 -23 -23 -24 -24 -24 -25 -25 -26 -26 -27 -27 -27 -27 -27 -26 -27 -27 -27 -27 -28 -28 -28 -28 -27 -27 -27 -26 -26 -25 -24 -23 -23 -21 -20 -19 -19 -17 -17 -17 -16 -16 -14
-21 -21 -22 -23 -24 -25 -24 -24 -24 -25 -26 -27 -27 -27 -27 -27 -27 -27 -28 -28 -27 -27 -28 -28 -28 -28 -27 -27 -27 -26 -26 -26 -24 -23 -23 -22 -21 -20 -19 -19 -19 -17 -16 -16 -17
Height
5752 5752 5753 5754 5754 5753 5752 5752 5751 5751 5752 5752 5752 5752 5751 5750 5750 5750 5751 5753 5754 5756 5757 5760 5761 5763 5767 5772 5775 5779 5784 5794 5803 5810 5817 5815 5815 5814 5821 5827 5827 5830 5838 5839 5839
5747 5748 5749 5749 5748 5748 5747 5747 5746 5746 5745 5745 5744 5744 5744 5743 5742 5741 5742 5743 5744 5745 5746 5748 5749 5752 5754 5761 5763 5767 5775 5788 5795 5802 5806 5808 5808 5809 5814 5821 5823 5827 5834 5835 5838
5743 5743 5743 5743 5743 5742 5740 5739 5739 5738 5738 5737 5736 5736 5733 5732 5732 5732 5733 5733 5733 5733 5735 5737 5739 5739 5742 5748 5753 5756 5768 5778 5781 5789 5794 5799 5801 5800 5804 5812 5817 5823 5829 5831 5834
5738 5737 5737 5736 5735 5733 5732 5731 5731 5730 5730 5729 5728 5726 5724 5721 5719 5722 5723 5722 5723 5722 5724 5725 5727 5728 5729 5735 5739 5741 5760 5763 5769 5775 5780 5788 5792 5793 5792 5806 5807 5814 5821 5825 5828
5731 5731 5730 5729 5728 5726 5724 5724 5723 5722 5720 5719 5717 5716 5714 5709 5707 5707 5708 5708 5710 5710 5710 5711 5713 5714 5718 5721 5724 5731 5750 5749 5754 5763 5763 5773 5785 5783 5783 5798 5799 5805 5811 5819 5822
5724 5722 5721 5721 5719 5717 5716 5715 5714 5711 5709 5707 5707 5705 5704 5696 5695 5693 5692 5692 5693 5693 5695 5698 5698 5699 5703 5707 5710 5722 5728 5735 5738 5749 5751 5759 5770 5769 5786 5790 5789 5794 5801 5808 5815
5716 5714 5714 5713 5711 5710 5708 5706 5704 5701 5698 5695 5694 5692 5689 5684 5681 5679 5678 5674 5673 5676 5678 5680 5682 5685 5688 5694 5697 5704 5711 5718 5728 5737 5739 5746 5749 5763 5786 5777 5780 5784 5791 5798 5806
5709 5708 5707 5705 5703 5701 5699 5697 5695 5691 5688 5685 5682 5678 5672 5667 5663 5661 5659 5656 5653 5653 5657 5657 5660 5667 5670 5675 5680 5684 5693 5702 5725 5725 5727 5726 5738 5764 5774 5766 5771 5776 5782 5789 5795
5701 5700 5699 5697 5694 5692 5690 5687 5684 5680 5674 5672 5669 5663 5657 5652 5647 5642 5639 5636 5633 5632 5633 5636 5639 5645 5651 5658 5659 5665 5677 5690 5708 5709 5704 5705 5727 5753 5757 5753 5761 5766 5772 5779 5786
5694 5692 5690 5688 5686 5684 5680 5677 5673 5668 5660 5658 5654 5650 5642 5636 5629 5623 5619 5618 5616 5615 5615 5616 5619 5625 5633 5635 5644 5657 5659 5671 5681 5687 5686 5689 5706 5735 5741 5742 5748 5756 5762 5770 5778
5686 5684 5681 5680 5677 5674 5671 5666 5662 5658 5645 5644 5639 5633 5625 5617 5614 5606 5602 5600 5600 5599 5600 5600 5604 5611 5610 5616 5626 5628 5635 5646 5666 5667 5672 5681 5688 5714 5727 5725 5735 5743 5750 5761 5769
5678 5675 5673 5671 5668 5665 5660 5655 5650 5645 5641 5629 5623 5617 5610 5601 5594 5592 5591 5590 5588 5587 5586 5589 5592 5591 5593 5600 5604 5610 5619 5629 5650 5652 5649 5663 5663 5687 5702 5706 5721 5730 5737 5748 5758
5670 5668 5665 5662 5658 5654 5648 5643 5636 5632 5628 5619 5611 5603 5595 5589 5584 5580 5579 5578 5577 5576 5574 5577 5581 5578 5578 5583 5588 5597 5602 5620 5628 5632 5633 5638 5642 5659 5688 5696 5702 5712 5724 5733 5746
5663 5661 5657 5652 5649 5642 5637 5632 5626 5619 5614 5608 5600 5589 5582 5578 5574 5570 5567 5568 5567 5566 5567 5568 5567 5566 5568 5575 5576 5576 5596 5601 5606 5608 5613 5623 5620 5635 5663 5674 5685 5702 5709 5718 5732
5655 5653 5649 5643 5639 5632 5628 5621 5615 5609 5601 5593 5587 5579 5573 5570 5566 5563 5561 5560 5559 5559 5560 5564 5559 5558 5561 5564 5557 5571 5569 5579 5586 5587 5594 5602 5602 5623 5639 5656 5671 5693 5701 5709 5720
5647 5644 5640 5634 5630 5623 5617 5612 5606 5600 5591 5583 5577 5570 5565 5561 5559 5557 5554 5553 5552 5552 5552 5553 5552 5551 5552 5552 5551 5556 5556 5563 5564 5574 5568 5590 5598 5598 5618 5650 5664 5682 5692 5699 5706
5641 5636 5633 5626 5621 5615 5609 5603 5597 5591 5582 5576 5568 5562 5557 5554 5552 5550 5549 5548 5545 5544 5547 5548 5548 5546 5545 5545 5543 5542 5545 5546 5547 5548 5556 5582 5577 5586 5611 5637 5653 5669 5682 5691 5696
5633 5629 5624 5619 5613 5607 5602 5595 5587 5580 5573 5567 5561 5555 5551 5548 5546 5544 5542 5540 5539 5539 5538 5539 5546 5540 5540 5537 5537 5536 5535 5535 5536 5544 5558 5568 5558 5573 5605 5624 5640 5658 5669 5678 5685
5625 5622 5617 5611 5605 5599 5594 5587 5579 5572 5566 5560 5556 5549 5546 5541 5539 5538 5536 5535 5534 5534 5534 5532 5538 5537 5534 5533 5531 5532 5529 5533 5528 5537 5540 5547 5563 5577 5588 5598 5616 5631 5641 5655 5667
5618 5615 5610 5604 5598 5593 5587 5580 5571 5564 5558 5552 5547 5544 5540 5538 5535 5531 5530 5530 5529 5529 5528 5527 5527 5532 5531 5531 5529 5526 5526 5526 5525 5528 5529 5539 5554 5559 5577 5584 5599 5617 5630 5645 5658
5611 5607 5603 5596 5590 5586 5581 5573 5565 5556 5551 5547 5542 5537 5534 5531 5530 5527 5526 5525 5523 5523 5523 5523 5522 5526 5526 5525 5523 5523 5518 5519 5519 5524 5527 5535 5548 5557 5562 5567 5580 5600 5618 5627 5639
5604 5601 5596 5589 5585 5578 5574 5566 5559 5550 5544 5540 5537 5532 5527 5526 5524 5521 5520 5518 5518 5516 5519 5518 5516 5516 5518 5518 5517 5517 5515 5514 5516 5518 5520 5526 5540 5543 5549 5555 5565 5576 5588 5601 5611
5597 5593 5588 5582 5577 5572 5567 5559 5552 5545 5539 5535 5531 5526 5522 5520 5516 5515 5514 5513 5512 5511 5511 5512 5510 5509 5512 5513 5511 5511 5511 5508 5509 5511 5513 5517 5529 5534 5540 5549 5552 5557 5576 5586 5597
5590 5587 5582 5576 5570 5566 5560 5553 5545 5538 5534 5528 5525 5520 5517 5514 5510 5507 5507 5507 5506 5504 5503 5502 5505 5504 5503 5504 5504 5507 5506 5504 5503 5505 5504 5512 5521 5526 5534 5542 5547 5547 5557 5569 5584
5582 5580 5576 5569 5563 5559 5553 5546 5539 5533 5528 5522 5519 5513 5510 5507 5504 5501 5499 5499 5499 5496 5493 5491 5496 5496 5499 5498 5500 5500 5499 5499 5500 5500 5500 5508 5510 5516 5524 5533 5536 5541 5549 5557 5571
5576 5574 5570 5563 5556 5552 5545 5540 5533 5526 5522 5518 5512 5509 5504 5500 5494 5492 5490 5489 5487 5487 5481 5480 5484 5487 5492 5494 5494 5497 5495 5493 5495 5497 5495 5498 5502 5506 5513 5521 5527 5533 5541 5549 5557
5568 5566 5563 5559 5551 5546 5540 5532 5526 5519 5518 5511 5506 5501 5499 5493 5488 5484 5480 5475 5472 5472 5475 5469 5475 5478 5483 5487 5488 5494 5491 5490 5490 5492 5489 5492 5496 5502 5506 5514 5522 5526 5533 5541 5549
Wind_Speed
20 20 21 23 25 26 27 28 30 30 30 30 31 32 34 36 38 40 41 43 45 45 47 53 55 55 55 55 55 57 58 53 47 39 34 33 40 45 41 38 39 38 29 29 31
22 24 26 28 29 30 31 33 33 31 32 33 34 35 36 38 41 41 43 43 44 45 46 47 56 58 60 57 58 60 60 55 50 44 40 35 40 46 45 40 42 40 34 32 30
26 28 30 31 32 32 33 34 32 32 33 34 36 37 40 42 44 46 48 47 49 49 48 48 52 57 62 62 61 61 59 56 56 51 46 42 42 48 50 43 44 43 38 36 35
27 29 30 30 31 33 35 33 32 32 34 36 39 36 41 43 49 50 51 51 53 55 54 53 53 57 59 63 65 66 57 60 59 57 53 47 45 50 54 46 48 46 40 35 35
29 30 32 34 35 34 32 33 32 33 35 37 39 42 45 46 51 53 56 59 58 57 57 59 58 59 59 60 65 68 62 62 61 61 62 54 45 53 57 49 51 48 46 40 38
36 38 37 35 32 33 34 34 35 35 38 41 42 45 47 51 55 57 60 63 63 63 64 62 62 62 63 62 64 63 70 69 69 64 66 61 52 58 54 51 54 52 49 45 41
38 34 31 31 33 35 35 36 37 40 44 45 46 49 51 57 59 61 62 66 69 70 69 70 69 67 66 65 65 64 67 73 73 69 69 66 63 57 50 59 57 56 53 51 45
29 29 31 34 36 35 36 38 39 44 47 50 52 53 57 60 60 64 68 70 75 75 72 73 74 73 71 70 68 67 67 70 70 73 74 72 70 54 54 63 61 59 56 54 51
29 33 35 37 36 36 39 41 43 47 51 54 55 57 59 62 64 64 65 66 65 65 68 70 76 76 76 73 74 74 71 70 71 75 79 79 70 58 60 67 65 63 60 57 54
33 36 37 36 37 39 43 46 48 51 54 55 57 58 60 62 61 62 60 56 54 55 58 59 64 75 78 80 77 75 75 72 75 75 81 83 78 65 64 70 68 66 64 60 55
35 36 37 37 39 41 45 48 50 51 56 56 58 61 61 60 58 51 47 47 45 46 50 54 56 57 68 74 79 78 78 78 74 74 77 83 84 71 68 72 73 71 68 63 59
34 34 36 39 42 45 48 48 48 50 51 56 58 58 57 53 47 42 39 37 37 40 44 46 48 53 58 62 70 74 77 80 77 74 79 82 90 80 75 79 73 74 74 69 63
33 34 37 41 43 46 47 47 50 52 54 54 55 56 50 40 35 36 34 32 29 32 38 41 43 47 51 55 60 66 70 76 80 74 77 81 91 91 79 79 80 74 76 75 66
34 35 38 42 43 46 46 48 49 52 53 56 53 51 45 34 33 34 34 30 27 28 31 35 40 45 48 51 54 63 59 68 75 75 76 80 90 93 87 84 85 77 78 79 71
34 35 38 41 44 46 46 46 48 51 52 53 50 45 37 31 32 31 32 31 32 32 32 28 32 36 39 41 49 50 58 63 70 71 74 78 86 92 92 88 87 82 80 78 74
34 36 38 41 41 44 43 45 50 49 50 51 46 42 36 32 29 28 30 31 35 37 35 33 32 34 33 29 38 49 54 59 66 66 73 76 74 94 93 87 85 84 82 80 75
34 37 38 40 42 41 43 45 47 47 50 47 42 39 35 31 28 29 28 31 36 38 35 31 30 32 35 33 28 37 44 52 60 66 72 72 67 93 87 86 86 84 84 81 76
35 37 39 40 41 41 43 45 45 47 46 44 38 36 32 30 29 28 28 28 29 26 28 23 21 27 28 28 26 27 35 46 56 59 66 65 65 91 80 81 83 83 83 84 80
36 38 39 40 41 41 42 44 44 47 46 41 33 34 28 30 30 26 25 23 22 30 30 28 20 15 22 23 22 21 27 33 43 50 59 66 56 74 72 78 84 86 88 89 85
38 38 39 41 40 40 41 44 44 46 45 38 37 33 28 25 25 27 25 22 16 23 26 28 28 22 18 18 16 12 21 25 30 42 54 62 60 55 56 76 76 83 88 88 86
37 38 38 40 41 40 41 44 43 45 44 37 35 34 27 26 23 25 25 22 20 20 24 24 21 21 25 23 19 20 5 23 33 30 41 50 52 50 53 59 74 83 71 89 88
37 37 37 39 39 40 40 45 44 44 41 38 32 32 29 25 23 25 27 26 23 25 24 24 28 31 28 25 28 26 24 10 32 37 24 39 51 53 27 40 59 77 76 67 88
36 36 36 39 40 40 41 44 45 43 38 35 33 31 30 27 28 25 26 26 28 28 27 25 25 27 24 23 26 25 24 25 18 24 42 14 57 57 49 20 36 67 83 76 68
34 35 35 38 38 40 41 44 46 43 37 35 35 32 28 28 29 29 27 25 28 31 34 31 28 25 25 20 24 20 21 26 23 23 42 27 33 31 55 48 27 49 75 85 71
34 32 34 37 39 38 41 45 45 42 36 34 35 34 32 30 30 31 31 29 28 30 34 40 30 32 26 27 19 16 14 20 24 19 26 35 32 38 49 46 36 35 50 56 74
34 32 32 35 37 36 41 44 43 41 38 34 36 32 33 34 35 34 35 34 32 28 36 39 33 33 28 25 18 7 14 18 26 23 20 28 43 29 40 52 40 44 33 41 56
35 33 31 32 36 35 40 43 43 42 35 36 37 34 33 36 38 39 38 35 33 29 24 38 35 32 31 29 26 13 18 16 20 25 27 23 37 45 47 42 31 37 37 47 43
Wind_Direction
249 255 259 266 273 278 280 283 286 287 287 287 286 284 282 278 272 269 265 262 260 253 250 249 248 249 248 245 243 242 240 236 236 234 214 218 224 232 236 232 240 245 235 237 237
253 257 263 267 270 273 276 277 281 283 285 289 292 292 286 280 275 272 268 265 262 259 254 250 249 247 248 246 244 242 239 236 236 236 224 214 224 228 236 236 239 240 234 237 244
255 258 263 267 272 276 278 279 278 282 287 291 293 295 293 290 283 277 269 265 263 263 260 253 249 250 247 247 245 243 238 239 236 236 231 223 224 226 232 238 241 241 241 240 240
270 272 274 275 276 277 278 276 279 283 287 291 291 294 296 293 285 282 275 270 264 261 259 259 254 249 248 246 245 244 238 238 237 234 236 226 220 229 231 230 238 241 241 242 247
282 284 280 278 278 277 275 278 280 283 290 293 292 292 292 288 288 288 281 275 269 264 260 258 256 254 248 246 245 242 239 239 237 236 235 231 220 227 231 225 235 240 242 241 243
284 281 278 278 278 280 284 282 283 287 291 291 288 288 287 282 282 281 277 273 270 267 262 257 256 255 254 248 246 244 238 236 236 234 236 233 221 224 228 229 232 236 239 240 240
282 282 281 282 286 287 287 288 290 291 290 289 288 286 285 281 277 274 272 272 272 269 264 259 253 252 251 251 247 243 239 237 234 237 238 237 226 219 224 234 230 233 236 237 238
280 281 285 287 288 287 286 288 288 286 284 287 288 287 283 285 279 275 274 274 274 267 260 255 253 249 248 248 248 246 242 237 232 237 239 239 232 218 220 230 232 234 237 239 238
281 284 288 290 288 287 285 287 289 290 290 292 291 289 285 285 286 283 280 277 272 267 265 259 255 251 248 247 247 245 243 240 233 234 237 239 234 218 217 226 232 234 235 237 239
287 289 292 291 291 291 291 293 294 295 294 295 294 293 291 291 290 289 283 275 268 263 261 260 255 251 248 247 246 248 246 240 235 234 235 237 234 220 214 223 226 229 233 236 237
292 293 293 293 294 294 295 296 298 300 299 298 296 296 298 297 293 286 278 270 263 261 259 255 255 255 251 249 245 245 244 240 231 240 236 236 238 225 214 220 221 227 232 233 234
297 296 295 296 296 298 298 299 301 302 303 302 302 303 304 300 294 287 282 276 271 265 261 258 257 254 250 249 247 246 244 241 234 237 240 233 234 227 217 216 218 221 227 231 233
297 298 297 299 300 301 303 304 305 305 305 305 307 308 308 302 297 288 283 278 271 265 263 261 259 259 256 251 247 245 245 241 239 237 237 237 232 230 220 219 216 215 222 229 230
300 300 299 302 302 305 307 309 307 309 309 309 312 311 309 304 295 291 284 282 278 277 272 270 267 263 260 254 254 247 244 241 239 241 238 237 236 230 222 219 219 214 219 226 228
304 303 302 303 305 308 309 309 311 311 312 315 316 312 309 300 291 286 283 280 281 281 279 277 276 272 268 265 261 249 242 238 238 238 239 234 238 227 226 220 219 214 220 225 227
304 305 305 306 308 309 310 311 313 315 315 316 317 314 308 299 292 285 279 279 277 277 279 282 284 283 278 276 268 253 247 238 238 238 238 236 236 234 228 222 221 217 218 223 225
305 306 308 308 311 312 313 314 316 318 319 319 315 313 306 300 292 290 285 276 277 279 272 272 283 291 288 290 277 257 251 245 240 237 237 236 237 234 231 225 222 220 218 223 224
309 310 311 311 313 314 315 316 319 320 319 317 313 312 305 297 295 293 291 287 277 272 280 280 271 286 287 293 283 274 258 249 244 241 239 235 238 232 236 228 224 223 221 221 224
311 312 313 313 313 314 317 317 321 322 320 316 312 311 302 299 300 296 292 296 291 263 270 280 262 293 299 300 287 292 275 258 254 243 238 230 239 241 236 234 223 220 222 220 222
315 315 315 314 313 316 319 321 323 322 320 317 315 316 306 298 297 297 294 297 278 265 266 281 285 259 286 298 281 285 276 250 257 247 244 236 227 238 241 237 232 223 222 223 223
317 317 317 314 313 317 321 322 324 322 320 317 316 314 307 302 298 291 286 278 280 265 270 277 285 277 274 287 280 268 235 247 238 248 253 245 234 235 244 241 235 220 226 226 224
317 318 317 313 315 318 323 324 326 322 319 316 318 313 306 303 301 294 291 282 272 278 264 269 268 281 278 281 287 283 290 291 236 239 254 238 219 214 228 235 233 225 217 226 230
318 319 317 314 316 319 325 325 325 324 319 317 317 312 305 304 298 293 288 282 278 275 275 262 265 274 272 283 281 297 290 290 302 242 238 255 219 224 234 244 249 220 215 224 230
318 318 318 315 316 320 326 325 326 325 321 317 317 311 305 302 299 296 287 286 281 274 267 266 258 257 266 279 287 289 297 293 289 260 247 239 203 231 237 240 221 233 219 223 227
317 317 317 314 316 321 326 325 327 324 320 317 317 312 309 307 301 294 296 294 288 277 266 264 255 252 252 264 279 298 291 289 288 272 260 230 231 232 212 214 221 205 224 222 226
315 316 316 314 315 320 323 325 327 322 322 318 319 314 311 309 301 303 298 297 291 267 266 259 256 246 237 252 260 281 292 289 288 263 278 235 230 219 213 219 232 223 206 219 220
313 315 316 315 314 319 321 324 325 323 323 318 318 312 309 302 302 306 305 299 292 278 257 255 250 246 239 245 249 286 293 292 289 271 264 249 238 237 238 228 230 207 230 236 224